Location: Malvern Link
(52.1333°N, 2.3000°W)
Time: 05:17:53
(UTC+00:00)

AO-92 - Pass Details

Date: 04 July 2022
Orbit: 469 x 481 km, 97.4° (Epoch: 17 August)

Event Time Altitude Azimuth Distance (km) Brightness Sun altitude
Exits shadow 23:06:31 - 221° (SW) 1,762 ? -13.6°
Reaches altitude 10° 23:06:53 10° 225° (SW) 1,656 ? -13.6°
Maximum altitude 23:09:21 18° 269° (W) 1,263 ? -13.7°
Drops below altitude 10° 23:11:50 10° 313° (NW) 1,672 ? -13.8°
Sets 23:14:27 0° 333° (NNW) 2,562 ? -13.9°
